Estación de San Fernando
Ultimos registro cada 15 minutos 34
| N° | Estación | Fecha / Hora | Temperatura | Humedad | Lluvia | Velocidad | Dirección | Radiación | Presion |
| 34 | San Fernando | 08-05-2026 08:15 | 4,6 | 94 | 0 | 0 | 114 | 25 | 1020,8 |
| 33 | San Fernando | 08-05-2026 08:00 | 3,9 | 92 | 0 | 0 | 114 | 30 | 1020,6 |
| 32 | San Fernando | 08-05-2026 07:45 | 3,8 | 92 | 0 | 0 | 114 | 12 | 1020,7 |
| 31 | San Fernando | 08-05-2026 07:30 | 4 | 91 | 0 | 0,4 | 114 | 5 | 1020,6 |
| 30 | San Fernando | 08-05-2026 07:15 | 4,3 | 91 | 0 | 0,4 | 161 | 0 | 1020,7 |
| 29 | San Fernando | 08-05-2026 07:00 | 4,4 | 91 | 0 | 0 | 161 | 0 | 1020,8 |
| 28 | San Fernando | 08-05-2026 06:45 | 4,7 | 90 | 0 | 0 | 239 | 0 | 1021 |
| 27 | San Fernando | 08-05-2026 06:30 | 4,8 | 90 | 0 | 0 | 239 | 0 | 1021,3 |
| 26 | San Fernando | 08-05-2026 06:15 | 4,9 | 90 | 0 | 0 | 219 | 0 | 1021,6 |
| 25 | San Fernando | 08-05-2026 06:00 | 4,9 | 90 | 0 | 0,4 | 209 | 0 | 1021,7 |
| 24 | San Fernando | 08-05-2026 05:45 | 5,1 | 89 | 0 | 1,3 | 227 | 0 | 1021,6 |
| 23 | San Fernando | 08-05-2026 05:30 | 5,2 | 89 | 0 | 0,4 | 214 | 0 | 1021,5 |
| 22 | San Fernando | 08-05-2026 05:15 | 5,3 | 89 | 0 | 1,8 | 214 | 0 | 1021,5 |
| 21 | San Fernando | 08-05-2026 05:00 | 5,3 | 89 | 0 | 1,3 | 228 | 0 | 1021,3 |
| 20 | San Fernando | 08-05-2026 04:45 | 5,4 | 88 | 0 | 0 | 178 | 0 | 1021,1 |
| 19 | San Fernando | 08-05-2026 04:30 | 5,6 | 88 | 0 | 0,4 | 214 | 0 | 1021 |
| 18 | San Fernando | 08-05-2026 04:15 | 5,7 | 88 | 0 | 0,9 | 255 | 0 | 1021,2 |
| 17 | San Fernando | 08-05-2026 04:00 | 5,8 | 88 | 0 | 0,4 | 167 | 0 | 1021,3 |
| 16 | San Fernando | 08-05-2026 03:45 | 5,9 | 88 | 0 | 0,9 | 209 | 0 | 1021,4 |
| 15 | San Fernando | 08-05-2026 03:30 | 6,1 | 88 | 0 | 0,9 | 175 | 0 | 1021,5 |
| 14 | San Fernando | 08-05-2026 03:15 | 6,2 | 88 | 0 | 0,9 | 221 | 0 | 1021,8 |
| 13 | San Fernando | 08-05-2026 03:00 | 6,3 | 88 | 0 | 0 | 204 | 0 | 1021,8 |
| 12 | San Fernando | 08-05-2026 02:45 | 6,4 | 88 | 0 | 0,9 | 280 | 0 | 1021,8 |
| 11 | San Fernando | 08-05-2026 02:30 | 6,4 | 88 | 0 | 0 | 229 | 0 | 1021,9 |
| 10 | San Fernando | 08-05-2026 02:15 | 6,6 | 87 | 0 | 0 | 228 | 0 | 1022,1 |
| 9 | San Fernando | 08-05-2026 02:00 | 6,6 | 87 | 0 | 0,9 | 209 | 0 | 1022,2 |
| 8 | San Fernando | 08-05-2026 01:45 | 6,7 | 86 | 0 | 0,4 | 218 | 0 | 1022,2 |
| 7 | San Fernando | 08-05-2026 01:30 | 7 | 86 | 0 | 0 | 197 | 0 | 1022,6 |
| 6 | San Fernando | 08-05-2026 01:15 | 7,3 | 85 | 0 | 0,4 | 200 | 0 | 1022,9 |
| 5 | San Fernando | 08-05-2026 01:00 | 7,5 | 85 | 0 | 0,9 | 193 | 0 | 1023 |
| 4 | San Fernando | 08-05-2026 00:45 | 7,7 | 84 | 0 | 0,4 | 192 | 0 | 1022,9 |
| 3 | San Fernando | 08-05-2026 00:30 | 8 | 83 | 0 | 1,3 | 225 | 0 | 1023,1 |
| 2 | San Fernando | 08-05-2026 00:15 | 8,4 | 82 | 0 | 0 | 229 | 0 | 1023,3 |
| 1 | San Fernando | 08-05-2026 00:00 | 8,6 | 82 | 0 | 0 | 191 | 0 | 1023,2 |